"datetime","temp","dp","rain_mm","uv","solar","mb","wind_mph","gust_mph","windchill","rh"
"2014-02-08 00:00:00",7.1,6.5,0.0,0.0,0,985.4,3,7,"",96
"2014-02-08 00:01:00",7.1,6.5,0.2,0.0,0,985.4,7,26,"",96
"2014-02-08 00:02:00",7.1,6.5,0.2,0.0,0,985.3,8,8,"",96
"2014-02-08 00:03:00",7.1,6.5,0.2,0.0,0,985.3,3,7,"",96
"2014-02-08 00:04:00",7.1,6.5,0.2,0.0,0,985.2,6,15,"",96
"2014-02-08 00:05:00",7.1,6.5,0.2,0.0,0,985.3,6,7,"",96
"2014-02-08 00:06:00",7.1,6.5,0.2,0.0,0,985.2,3,5,"",96
"2014-02-08 00:07:00",7.1,6.5,0.2,0.0,0,985.2,3,14,"",96
"2014-02-08 00:08:00",7.1,6.5,0.2,0.0,0,985.1,3,5,"",96
"2014-02-08 00:09:00",7.1,6.5,0.2,0.0,0,985.2,2,12,"",96
"2014-02-08 00:10:00",7.1,6.5,0.4,0.0,0,985.0,5,10,"",96
"2014-02-08 00:11:00",7.1,6.5,0.4,0.0,0,985.1,6,10,"",96
"2014-02-08 00:12:00",7.1,6.5,0.4,0.0,0,985.0,6,8,"",96
"2014-02-08 00:13:00",7.1,6.5,0.4,0.0,0,985.0,6,20,"",96
"2014-02-08 00:14:00",7.1,6.5,0.4,0.0,0,984.9,7,12,"",96
"2014-02-08 00:15:00",7.1,6.5,0.4,0.0,0,984.9,6,12,"",96
"2014-02-08 00:16:00",7.1,6.5,0.4,0.0,0,984.9,6,16,"",96
"2014-02-08 00:17:00",7.1,6.5,0.4,0.0,0,984.9,9,18,"",96
"2014-02-08 00:18:00",7.1,6.5,0.4,0.0,0,984.9,3,14,"",96
"2014-02-08 00:19:00",7.1,6.5,0.4,0.0,0,984.9,6,14,"",96
"2014-02-08 00:20:00",7.1,6.5,0.4,0.0,0,984.8,5,7,"",96
"2014-02-08 00:21:00",7.1,6.5,0.4,0.0,0,984.7,3,7,"",96
"2014-02-08 00:22:00",7.1,6.5,0.6,0.0,0,984.8,5,16,"",96
"2014-02-08 00:23:00",7.1,6.5,0.6,0.0,0,984.6,7,12,"",96
"2014-02-08 00:24:00",7.1,6.5,0.6,0.0,0,984.6,3,10,"",96
"2014-02-08 00:25:00",7.2,6.6,0.6,0.0,0,984.6,3,7,"",96
"2014-02-08 00:26:00",7.2,6.6,0.6,0.0,0,984.6,5,16,"",96
"2014-02-08 00:27:00",7.2,6.6,0.6,0.0,0,984.5,6,7,"",96
"2014-02-08 00:28:00",7.2,6.6,0.6,0.0,0,984.4,3,10,"",96
"2014-02-08 00:29:00",7.2,6.6,0.6,0.0,0,984.5,5,7,"",96
"2014-02-08 00:30:00",7.2,6.6,0.8,0.0,0,984.4,3,25,"",96
"2014-02-08 00:31:00",7.2,6.6,0.8,0.0,0,984.4,7,16,"",96
"2014-02-08 00:32:00",7.2,6.6,0.8,0.0,0,984.4,6,12,"",96
"2014-02-08 00:33:00",7.2,6.6,0.8,0.0,0,984.4,5,8,"",96
"2014-02-08 00:34:00",7.2,6.6,0.8,0.0,0,984.3,5,23,"",96
"2014-02-08 00:35:00",7.2,6.6,0.8,0.0,0,984.2,10,23,"",96
"2014-02-08 00:36:00",7.2,6.6,0.8,0.0,0,984.2,3,16,"",96
"2014-02-08 00:37:00",7.2,6.6,0.8,0.0,0,984.1,6,16,"",96
"2014-02-08 00:38:00",7.2,6.6,0.8,0.0,0,984.0,7,12,"",96
"2014-02-08 00:39:00",7.2,6.6,0.8,0.0,0,983.9,3,7,"",96
"2014-02-08 00:40:00",7.2,6.6,0.8,0.0,0,984.0,3,5,"",96
"2014-02-08 00:41:00",7.2,6.6,0.8,0.0,0,983.8,6,15,"",96
"2014-02-08 00:42:00",7.2,6.6,0.8,0.0,0,983.8,6,7,"",96
"2014-02-08 00:43:00",7.2,6.6,0.8,0.0,0,983.7,5,12,"",96
"2014-02-08 00:44:00",7.2,6.6,1.0,0.0,0,983.7,6,7,"",96
"2014-02-08 00:45:00",7.2,6.6,1.0,0.0,0,983.7,3,7,"",96
"2014-02-08 00:46:00",7.2,6.6,1.0,0.0,0,983.7,5,8,"",96
"2014-02-08 00:47:00",7.2,6.6,1.0,0.0,0,983.7,6,10,"",96
"2014-02-08 00:48:00",7.2,6.6,1.0,0.0,0,983.7,3,12,"",96
"2014-02-08 00:49:00",7.3,6.7,1.0,0.0,0,983.7,7,20,"",96
"2014-02-08 00:50:00",7.3,6.7,1.0,0.0,0,983.7,8,15,"",96
"2014-02-08 00:51:00",7.3,6.7,1.0,0.0,0,983.6,6,16,"",96
"2014-02-08 00:52:00",7.3,6.7,1.2,0.0,0,983.7,5,14,"",96
"2014-02-08 00:53:00",7.3,6.7,1.2,0.0,0,983.6,7,14,"",96
"2014-02-08 00:54:00",7.3,6.7,1.2,0.0,0,983.5,5,7,"",96
"2014-02-08 00:55:00",7.3,6.9,1.2,0.0,0,983.4,2,5,"",97
"2014-02-08 00:56:00",7.3,6.9,1.2,0.0,0,983.4,2,3,"",97
"2014-02-08 00:57:00",7.3,6.9,1.2,0.0,0,983.3,5,15,"",97
"2014-02-08 00:58:00",7.3,6.9,1.2,0.0,0,983.2,7,15,"",97
"2014-02-08 00:59:00",7.3,6.9,1.2,0.0,0,983.2,6,14,"",97
"2014-02-08 01:00:00",7.3,6.9,1.2,0.0,0,983.1,5,18,"",97
"2014-02-08 01:01:00",7.3,6.9,1.2,0.0,0,983.0,10,25,"",97
"2014-02-08 01:02:00",7.4,6.9,1.2,0.0,0,983.0,9,15,"",97
"2014-02-08 01:03:00",7.4,6.9,1.2,0.0,0,983.0,5,8,"",97
"2014-02-08 01:04:00",7.4,6.9,1.2,0.0,0,982.9,5,5,"",97
"2014-02-08 01:05:00",7.4,6.9,1.2,0.0,0,982.9,2,3,"",97
"2014-02-08 01:06:00",7.4,6.9,1.4,0.0,0,982.9,5,12,"",97
"2014-02-08 01:07:00",7.4,6.9,1.4,0.0,0,982.8,5,7,"",97
"2014-02-08 01:08:00",7.4,6.9,1.4,0.0,0,982.8,5,14,"",97
"2014-02-08 01:09:00",7.4,6.9,1.4,0.0,0,982.8,8,16,"",97
"2014-02-08 01:10:00",7.4,7.0,1.4,0.0,0,982.7,9,20,"",97
"2014-02-08 01:11:00",7.4,7.0,1.4,0.0,0,982.6,8,14,"",97
"2014-02-08 01:12:00",7.4,7.0,1.6,0.0,0,982.6,9,26,"",97
"2014-02-08 01:13:00",7.4,7.0,1.6,0.0,0,982.5,8,12,"",97
"2014-02-08 01:14:00",7.4,7.0,1.6,0.0,0,982.5,5,14,"",97
"2014-02-08 01:15:00",7.5,7.0,1.6,0.0,0,982.4,6,10,"",97
"2014-02-08 01:16:00",7.5,7.1,1.6,0.0,0,982.5,3,10,"",97
"2014-02-08 01:17:00",7.5,7.1,1.6,0.0,0,982.4,5,7,"",97
"2014-02-08 01:18:00",7.5,7.1,1.6,0.0,0,982.5,6,18,"",97
"2014-02-08 01:19:00",7.5,7.1,1.6,0.0,0,982.4,8,10,"",97
"2014-02-08 01:20:00",7.5,7.1,1.6,0.0,0,982.5,3,3,"",97
"2014-02-08 01:21:00",7.5,7.1,1.6,0.0,0,982.5,2,10,"",97
"2014-02-08 01:22:00",7.5,7.1,1.6,0.0,0,982.5,6,15,"",97
"2014-02-08 01:23:00",7.5,7.1,1.6,0.0,0,982.4,6,12,"",97
"2014-02-08 01:24:00",7.5,7.1,1.8,0.0,0,982.3,6,18,"",97
"2014-02-08 01:25:00",7.5,7.1,1.8,0.0,0,982.3,7,12,"",97
"2014-02-08 01:26:00",7.5,7.1,1.8,0.0,0,982.3,3,8,"",97
"2014-02-08 01:27:00",7.6,7.1,1.8,0.0,0,982.2,5,7,"",97
"2014-02-08 01:28:00",7.6,7.1,1.8,0.0,0,982.4,5,12,"",97
"2014-02-08 01:29:00",7.6,7.1,1.8,0.0,0,982.2,6,20,"",97
"2014-02-08 01:30:00",7.6,7.1,1.8,0.0,0,982.1,12,18,"",97
"2014-02-08 01:31:00",7.6,7.1,1.8,0.0,0,982.1,5,5,"",97
"2014-02-08 01:32:00",7.6,7.1,2.0,0.0,0,982.1,2,14,"",97
"2014-02-08 01:33:00",7.6,7.1,2.0,0.0,0,982.1,5,7,"",97
"2014-02-08 01:34:00",7.6,7.1,2.0,0.0,0,982.1,2,5,"",97
"2014-02-08 01:35:00",7.6,7.1,2.0,0.0,0,982.0,3,5,"",97
"2014-02-08 01:36:00",7.6,7.1,2.0,0.0,0,982.0,3,3,"",97
"2014-02-08 01:37:00",7.6,7.1,2.0,0.0,0,982.1,3,12,"",97
"2014-02-08 01:38:00",7.6,7.2,2.0,0.0,0,982.0,6,12,"",97
"2014-02-08 01:39:00",7.6,7.2,2.0,0.0,0,982.0,5,15,"",97
"2014-02-08 01:40:00",7.6,7.2,2.0,0.0,0,982.0,5,10,"",97
"2014-02-08 01:41:00",7.6,7.2,2.0,0.0,0,982.0,5,10,"",97
"2014-02-08 01:42:00",7.6,7.2,2.0,0.0,0,981.9,5,14,"",97
"2014-02-08 01:43:00",7.6,7.2,2.0,0.0,0,982.1,7,16,"",97
"2014-02-08 01:44:00",7.6,7.2,2.0,0.0,0,981.9,5,5,"",97
"2014-02-08 01:45:00",7.7,7.4,2.2,0.0,0,981.9,5,15,"",98
"2014-02-08 01:46:00",7.7,7.4,2.2,0.0,0,981.9,6,16,"",98
"2014-02-08 01:47:00",7.7,7.4,2.2,0.0,0,981.8,7,20,"",98
"2014-02-08 01:48:00",7.7,7.4,2.2,0.0,0,981.8,7,10,"",98
"2014-02-08 01:49:00",7.7,7.4,2.2,0.0,0,981.8,5,10,"",98
"2014-02-08 01:50:00",7.7,7.4,2.2,0.0,0,981.8,6,20,"",98
"2014-02-08 01:51:00",7.7,7.4,2.2,0.0,0,981.7,6,10,"",98
"2014-02-08 01:52:00",7.8,7.5,2.4,0.0,0,981.7,3,5,"",98
"2014-02-08 01:53:00",7.8,7.5,2.4,0.0,0,981.6,5,20,"",98
"2014-02-08 01:54:00",7.8,7.5,2.4,0.0,0,981.7,10,15,"",98
"2014-02-08 01:55:00",7.8,7.5,2.4,0.0,0,981.8,7,12,"",98
"2014-02-08 01:56:00",7.8,7.5,2.4,0.0,0,981.7,5,5,"",98
"2014-02-08 01:57:00",7.8,7.5,2.4,0.0,0,981.7,3,8,"",98
"2014-02-08 01:58:00",7.8,7.5,2.4,0.0,0,981.8,6,12,"",98
"2014-02-08 01:59:00",7.8,7.5,2.4,0.0,0,981.6,5,7,"",98
"2014-02-08 02:00:00",7.8,7.5,2.4,0.0,0,981.7,3,7,"",98
"2014-02-08 02:01:00",7.8,7.5,2.4,0.0,0,981.7,3,5,"",98
"2014-02-08 02:02:00",7.9,7.6,2.4,0.0,0,981.7,3,10,"",98
"2014-02-08 02:03:00",7.9,7.6,2.4,0.0,0,981.6,3,7,"",98
"2014-02-08 02:04:00",7.9,7.6,2.4,0.0,0,981.6,2,12,"",98
"2014-02-08 02:05:00",7.9,7.6,2.4,0.0,0,981.6,6,8,"",98
"2014-02-08 02:06:00",7.9,7.6,2.4,0.0,0,981.5,5,10,"",98
"2014-02-08 02:07:00",7.9,7.6,2.4,0.0,0,981.4,6,16,"",98
"2014-02-08 02:08:00",7.9,7.6,2.4,0.0,0,981.5,6,18,"",98
"2014-02-08 02:09:00",7.9,7.6,2.4,0.0,0,981.5,7,10,"",98
"2014-02-08 02:10:00",7.9,7.6,2.4,0.0,0,981.5,5,7,"",98
"2014-02-08 02:11:00",7.9,7.6,2.4,0.0,0,981.6,6,15,"",98
"2014-02-08 02:12:00",7.9,7.6,2.4,0.0,0,981.5,6,10,"",98
"2014-02-08 02:13:00",7.9,7.6,3.2,0.0,0,981.5,5,7,"",98
"2014-02-08 02:14:00",7.9,7.6,3.2,0.0,0,981.5,3,16,"",98
"2014-02-08 02:15:00",7.9,7.6,3.2,0.0,0,981.4,6,7,"",98
"2014-02-08 02:16:00",7.9,7.6,3.2,0.0,0,981.5,3,5,"",98
"2014-02-08 02:17:00",7.9,7.6,3.2,0.0,0,981.4,2,3,"",98
"2014-02-08 02:18:00",8.0,7.7,3.2,0.0,0,981.4,2,5,"",98
"2014-02-08 02:19:00",8.0,7.7,3.2,0.0,0,981.4,3,14,"",98
"2014-02-08 02:20:00",8.0,7.7,3.2,0.0,0,981.3,6,12,"",98
"2014-02-08 02:21:00",8.0,7.7,3.2,0.0,0,981.3,2,5,"",98
"2014-02-08 02:22:00",8.0,7.7,3.2,0.0,0,981.3,2,3,"",98
"2014-02-08 02:23:00",8.0,7.7,3.2,0.0,0,981.2,2,5,"",98
"2014-02-08 02:24:00",8.0,7.7,3.2,0.0,0,981.1,2,3,"",98
"2014-02-08 02:25:00",8.0,7.7,3.2,0.0,0,981.1,2,5,"",98
"2014-02-08 02:26:00",8.0,7.7,3.2,0.0,0,981.1,3,5,"",98
"2014-02-08 02:27:00",8.0,7.7,3.4,0.0,0,981.1,3,5,"",98
"2014-02-08 02:28:00",8.0,7.7,3.4,0.0,0,981.0,3,10,"",98
"2014-02-08 02:29:00",8.0,7.7,3.4,0.0,0,981.1,5,12,"",98
"2014-02-08 02:30:00",8.0,7.7,3.4,0.0,0,981.0,3,3,"",98
"2014-02-08 02:31:00",8.0,7.7,3.4,0.0,0,981.0,3,15,"",98
"2014-02-08 02:32:00",8.0,7.7,3.4,0.0,0,981.1,7,15,"",98
"2014-02-08 02:33:00",8.0,7.7,3.6,0.0,0,981.0,6,7,"",98
"2014-02-08 02:34:00",8.0,7.7,3.6,0.0,0,981.0,5,7,"",98
"2014-02-08 02:35:00",8.0,7.7,3.6,0.0,0,981.0,5,16,"",98
"2014-02-08 02:36:00",8.0,7.7,3.6,0.0,0,980.9,7,16,"",98
"2014-02-08 02:37:00",8.1,7.8,3.6,0.0,0,981.0,5,7,"",98
"2014-02-08 02:38:00",8.1,7.8,3.6,0.0,0,980.9,3,7,"",98
"2014-02-08 02:39:00",8.1,7.8,3.6,0.0,0,980.9,3,7,"",98
"2014-02-08 02:40:00",8.1,7.8,3.6,0.0,0,980.9,3,5,"",98
"2014-02-08 02:41:00",8.1,7.8,3.6,0.0,0,980.9,2,7,"",98
"2014-02-08 02:42:00",8.1,7.8,3.6,0.0,0,980.9,5,10,"",98
"2014-02-08 02:43:00",8.1,7.8,3.6,0.0,0,980.9,6,8,"",98
"2014-02-08 02:44:00",8.1,7.8,3.6,0.0,0,980.8,5,7,"",98
"2014-02-08 02:45:00",8.1,7.8,3.8,0.0,0,980.8,3,8,"",98
"2014-02-08 02:46:00",8.1,7.8,3.8,0.0,0,980.8,3,8,"",98
"2014-02-08 02:47:00",8.1,7.8,3.8,0.0,0,980.9,6,18,"",98
"2014-02-08 02:48:00",8.1,7.8,3.8,0.0,0,980.9,8,7,"",98
"2014-02-08 02:49:00",8.1,7.8,3.8,0.0,0,980.7,5,10,"",98
"2014-02-08 02:50:00",8.1,7.8,4.0,0.0,0,980.7,7,16,"",98
"2014-02-08 02:51:00",8.1,7.8,4.0,0.0,0,980.6,5,7,"",98
"2014-02-08 02:52:00",8.1,7.8,4.0,0.0,0,980.6,5,14,"",98
"2014-02-08 02:53:00",8.2,7.9,4.0,0.0,0,980.5,5,7,"",98
"2014-02-08 02:54:00",8.2,7.9,4.0,0.0,0,980.6,5,12,"",98
"2014-02-08 02:55:00",8.2,7.9,4.0,0.0,0,980.6,2,3,"",98
"2014-02-08 02:56:00",8.2,7.9,4.0,0.0,0,980.6,1,5,"",98
"2014-02-08 02:57:00",8.2,7.9,4.0,0.0,0,980.6,3,10,"",98
"2014-02-08 02:58:00",8.2,7.9,4.0,0.0,0,980.5,5,7,"",98
"2014-02-08 02:59:00",8.2,7.9,4.0,0.0,0,980.6,5,8,"",98
"2014-02-08 03:00:00",8.2,7.9,4.0,0.0,0,980.5,2,3,"",98
"2014-02-08 03:01:00",8.2,7.9,4.2,0.0,0,980.5,3,20,"",98
"2014-02-08 03:02:00",8.2,7.9,4.2,0.0,0,980.5,3,7,"",98
"2014-02-08 03:03:00",8.2,7.9,4.2,0.0,0,980.4,3,5,"",98
"2014-02-08 03:04:00",8.2,7.9,4.2,0.0,0,980.4,1,14,"",98
"2014-02-08 03:05:00",8.2,7.9,4.2,0.0,0,980.4,3,7,"",98
"2014-02-08 03:06:00",8.2,7.9,4.2,0.0,0,980.5,3,5,"",98
"2014-02-08 03:07:00",8.2,7.9,4.4,0.0,0,980.3,3,8,"",98
"2014-02-08 03:08:00",8.2,7.9,4.4,0.0,0,980.3,5,10,"",98
"2014-02-08 03:09:00",8.2,7.9,4.4,0.0,0,980.2,6,12,"",98
"2014-02-08 03:10:00",8.2,7.9,4.4,0.0,0,980.3,2,7,"",98
"2014-02-08 03:11:00",8.2,7.9,4.4,0.0,0,980.2,3,10,"",98
"2014-02-08 03:12:00",8.2,7.9,4.4,0.0,0,980.2,3,7,"",98
"2014-02-08 03:13:00",8.2,7.9,4.4,0.0,0,980.2,3,5,"",98
"2014-02-08 03:14:00",8.2,7.9,4.4,0.0,0,980.2,2,3,"",98
"2014-02-08 03:15:00",8.2,7.9,4.4,0.0,0,980.2,2,12,"",98
"2014-02-08 03:16:00",8.2,7.9,4.4,0.0,0,980.0,3,15,"",98
"2014-02-08 03:17:00",8.2,7.9,4.6,0.0,0,980.1,6,16,"",98
"2014-02-08 03:18:00",8.2,7.9,4.6,0.0,0,980.1,5,7,"",98
"2014-02-08 03:19:00",8.2,7.9,4.6,0.0,0,980.0,3,5,"",98
"2014-02-08 03:20:00",8.2,7.9,4.6,0.0,0,980.1,2,5,"",98
"2014-02-08 03:21:00",8.2,7.9,4.6,0.0,0,980.0,1,3,"",98
"2014-02-08 03:22:00",8.2,7.9,4.8,0.0,0,980.0,1,3,"",98
"2014-02-08 03:23:00",8.2,7.9,4.8,0.0,0,980.0,2,5,"",98
"2014-02-08 03:24:00",8.2,7.9,4.8,0.0,0,980.1,3,5,"",98
"2014-02-08 03:25:00",8.2,7.9,4.8,0.0,0,980.0,1,3,"",98
"2014-02-08 03:26:00",8.2,7.9,4.8,0.0,0,980.0,2,3,"",98
"2014-02-08 03:27:00",8.2,7.9,4.8,0.0,0,980.0,1,3,"",98
"2014-02-08 03:28:00",8.2,7.9,4.8,0.0,0,980.0,2,5,"",98
"2014-02-08 03:29:00",8.2,7.9,4.8,0.0,0,980.1,2,3,"",98
"2014-02-08 03:30:00",8.2,7.9,4.8,0.0,0,980.0,5,14,"",98
"2014-02-08 03:31:00",8.2,7.9,4.8,0.0,0,980.0,5,5,"",98
"2014-02-08 03:32:00",8.2,7.9,4.8,0.0,0,980.0,3,5,"",98
"2014-02-08 03:33:00",8.2,7.7,4.8,0.0,0,980.0,3,14,"",97
"2014-02-08 03:34:00",8.2,7.7,4.8,0.0,0,980.0,3,5,"",97
"2014-02-08 03:35:00",8.2,7.7,5.0,0.0,0,980.0,3,16,"",97
"2014-02-08 03:36:00",8.2,7.7,5.0,0.0,0,980.0,5,3,"",97
"2014-02-08 03:37:00",8.1,7.7,5.0,0.0,0,980.0,2,7,"",97
"2014-02-08 03:38:00",8.1,7.7,5.0,0.0,0,979.9,2,5,"",97
"2014-02-08 03:39:00",8.1,7.7,5.0,0.0,0,979.9,2,3,"",97
"2014-02-08 03:40:00",8.1,7.7,5.0,0.0,0,979.8,2,5,"",97
"2014-02-08 03:41:00",8.1,7.7,5.0,0.0,0,979.8,1,1,"",97
"2014-02-08 03:42:00",8.1,7.7,5.2,0.0,0,979.8,1,7,"",97
"2014-02-08 03:43:00",8.1,7.7,5.2,0.0,0,979.8,2,3,"",97
"2014-02-08 03:44:00",8.1,7.7,5.2,0.0,0,979.8,2,5,"",97
"2014-02-08 03:45:00",8.1,7.7,5.2,0.0,0,979.9,3,5,"",97
"2014-02-08 03:46:00",8.1,7.6,5.2,0.0,0,979.8,3,10,"",97
"2014-02-08 03:47:00",8.1,7.6,5.2,0.0,0,979.8,3,7,"",97
"2014-02-08 03:48:00",8.1,7.6,5.2,0.0,0,979.7,3,5,"",97
"2014-02-08 03:49:00",8.1,7.6,5.2,0.0,0,979.7,2,5,"",97
"2014-02-08 03:50:00",8.1,7.6,5.2,0.0,0,979.7,2,7,"",97
"2014-02-08 03:51:00",8.1,7.6,5.2,0.0,0,979.7,1,3,"",97
"2014-02-08 03:52:00",8.1,7.6,5.2,0.0,0,979.7,2,3,"",97
"2014-02-08 03:53:00",8.0,7.6,5.2,0.0,0,979.7,2,7,"",97
"2014-02-08 03:54:00",8.0,7.6,5.2,0.0,0,979.6,2,3,"",97
"2014-02-08 03:55:00",8.0,7.6,5.4,0.0,0,979.6,2,5,"",97
"2014-02-08 03:56:00",8.0,7.6,5.4,0.0,0,979.6,3,7,"",97
"2014-02-08 03:57:00",8.0,7.6,5.4,0.0,0,979.6,2,3,"",97
"2014-02-08 03:58:00",8.0,7.6,5.4,0.0,0,979.6,2,5,"",97
"2014-02-08 03:59:00",8.0,7.6,5.4,0.0,0,979.6,3,8,"",97
"2014-02-08 04:00:00",8.0,7.5,5.4,0.0,0,979.6,2,5,"",97
"2014-02-08 04:01:00",8.0,7.5,5.4,0.0,0,979.6,2,3,"",97
"2014-02-08 04:02:00",7.9,7.5,5.6,0.0,0,979.6,1,3,"",97
"2014-02-08 04:03:00",7.9,7.5,5.6,0.0,0,979.6,2,7,"",97
"2014-02-08 04:04:00",7.9,7.5,5.6,0.0,0,979.6,3,7,"",97
"2014-02-08 04:05:00",7.9,7.5,5.6,0.0,0,979.6,2,3,"",97
"2014-02-08 04:06:00",7.9,7.5,5.6,0.0,0,979.6,1,5,"",97
"2014-02-08 04:07:00",7.9,7.5,5.6,0.0,0,979.6,3,7,"",97
"2014-02-08 04:08:00",7.9,7.5,5.6,0.0,0,979.5,3,5,"",97
"2014-02-08 04:09:00",7.9,7.4,5.6,0.0,0,979.5,3,7,"",97
"2014-02-08 04:10:00",7.9,7.4,5.6,0.0,0,979.5,1,1,"",97
"2014-02-08 04:11:00",7.9,7.4,5.6,0.0,0,979.5,1,1,"",97
"2014-02-08 04:12:00",7.9,7.4,5.6,0.0,0,979.4,2,12,"",97
"2014-02-08 04:13:00",7.9,7.4,5.6,0.0,0,979.4,5,5,"",97
"2014-02-08 04:14:00",7.9,7.4,5.6,0.0,0,979.5,2,3,"",97
"2014-02-08 04:15:00",7.9,7.4,5.8,0.0,0,979.5,2,5,"",97
"2014-02-08 04:16:00",7.9,7.4,5.8,0.0,0,979.5,1,1,"",97
"2014-02-08 04:17:00",7.9,7.4,5.8,0.0,0,979.4,1,1,"",97
"2014-02-08 04:18:00",7.8,7.4,5.8,0.0,0,979.4,2,8,"",97
"2014-02-08 04:19:00",7.8,7.4,5.8,0.0,0,979.5,5,8,"",97
"2014-02-08 04:20:00",7.8,7.4,5.8,0.0,0,979.4,1,1,"",97
"2014-02-08 04:21:00",7.8,7.4,6.0,0.0,0,979.4,2,5,"",97
"2014-02-08 04:22:00",7.9,7.4,6.0,0.0,0,979.5,1,0,"",97
"2014-02-08 04:23:00",7.9,7.4,6.0,0.0,0,979.5,0,1,"",97
"2014-02-08 04:24:00",7.9,7.4,6.0,0.0,0,979.4,0,3,"",97
"2014-02-08 04:25:00",7.9,7.4,6.0,0.0,0,979.4,1,3,"",97
"2014-02-08 04:26:00",7.8,7.4,6.0,0.0,0,979.5,0,1,"",97
"2014-02-08 04:27:00",7.9,7.4,6.0,0.0,0,979.6,1,3,"",97
"2014-02-08 04:28:00",7.9,7.4,6.0,0.0,0,979.7,1,1,"",97
"2014-02-08 04:29:00",7.9,7.4,6.0,0.0,0,979.9,1,3,"",97
"2014-02-08 04:30:00",7.9,7.4,6.0,0.0,0,979.9,1,7,"",97
"2014-02-08 04:31:00",7.9,7.4,6.0,0.0,0,980.0,3,5,"",97
"2014-02-08 04:32:00",7.9,7.4,6.0,0.0,0,979.9,2,5,"",97
"2014-02-08 04:33:00",7.9,7.6,6.2,0.0,0,979.8,1,3,"",98
"2014-02-08 04:34:00",7.9,7.6,6.2,0.0,0,979.8,1,3,"",98
"2014-02-08 04:35:00",7.9,7.6,6.2,0.0,0,979.7,2,7,"",98
"2014-02-08 04:36:00",7.9,7.6,6.2,0.0,0,979.6,5,14,"",98
"2014-02-08 04:37:00",7.9,7.6,6.2,0.0,0,979.6,2,5,"",98
"2014-02-08 04:38:00",7.9,7.4,6.2,0.0,0,979.6,3,5,"",97
"2014-02-08 04:39:00",7.9,7.4,6.2,0.0,0,979.6,2,14,"",97
"2014-02-08 04:40:00",7.8,7.4,6.4,0.0,0,979.4,5,14,"",97
"2014-02-08 04:41:00",7.8,7.4,6.4,0.0,0,979.5,3,3,"",97
"2014-02-08 04:42:00",7.8,7.4,6.4,0.0,0,979.6,2,5,"",97
"2014-02-08 04:43:00",7.8,7.3,6.4,0.0,0,979.5,2,1,"",97
"2014-02-08 04:44:00",7.8,7.3,6.4,0.0,0,979.5,1,5,"",97
"2014-02-08 04:45:00",7.8,7.3,6.4,0.0,0,979.5,2,12,"",97
"2014-02-08 04:46:00",7.7,7.3,6.4,0.0,0,979.5,2,3,"",97
"2014-02-08 04:47:00",7.7,7.3,6.4,0.0,0,979.5,1,5,"",97
"2014-02-08 04:48:00",7.7,7.2,6.4,0.0,0,979.6,2,5,"",97
"2014-02-08 04:49:00",7.7,7.2,6.4,0.0,0,979.5,1,3,"",97
"2014-02-08 04:50:00",7.7,7.2,6.6,0.0,0,979.5,2,5,"",97
"2014-02-08 04:51:00",7.6,7.0,6.6,0.0,0,979.6,2,1,"",96
"2014-02-08 04:52:00",7.6,7.0,6.6,0.0,0,979.5,1,1,"",96
"2014-02-08 04:53:00",7.6,7.0,6.6,0.0,0,979.6,1,1,"",96
"2014-02-08 04:54:00",7.6,7.0,6.6,0.0,0,979.6,1,1,"",96
"2014-02-08 04:55:00",7.6,7.0,6.6,0.0,0,979.6,1,3,"",96
"2014-02-08 04:56:00",7.6,7.0,6.6,0.0,0,979.7,2,5,"",96
"2014-02-08 04:57:00",7.5,7.0,6.8,0.0,0,979.8,1,1,"",97
"2014-02-08 04:58:00",7.5,6.9,6.8,0.0,0,979.8,1,3,"",96
"2014-02-08 04:59:00",7.5,6.9,6.8,0.0,0,979.8,1,5,"",96
"2014-02-08 05:00:00",7.5,6.9,6.8,0.0,0,979.8,1,1,"",96
"2014-02-08 05:01:00",7.4,6.8,6.8,0.0,0,979.8,1,1,"",96
"2014-02-08 05:02:00",7.4,6.8,6.8,0.0,0,979.8,1,1,"",96
"2014-02-08 05:03:00",7.4,6.8,6.8,0.0,0,979.7,0,0,"",96
"2014-02-08 05:04:00",7.4,6.8,6.8,0.0,0,979.7,0,1,"",96
"2014-02-08 05:05:00",7.4,6.8,7.0,0.0,0,979.7,0,1,"",96
"2014-02-08 05:06:00",7.4,6.8,7.0,0.0,0,979.7,0,1,"",96
"2014-02-08 05:07:00",7.4,6.8,7.0,0.0,0,979.7,1,1,"",96
"2014-02-08 05:08:00",7.4,6.8,7.0,0.0,0,979.7,1,3,"",96
"2014-02-08 05:09:00",7.3,6.7,7.0,0.0,0,979.7,1,1,"",96
"2014-02-08 05:10:00",7.3,6.7,7.2,0.0,0,979.7,1,7,"",96
"2014-02-08 05:11:00",7.3,6.7,7.2,0.0,0,979.7,2,5,"",96
"2014-02-08 05:12:00",7.3,6.7,7.2,0.0,0,979.7,2,1,"",96
"2014-02-08 05:13:00",7.3,6.7,7.2,0.0,0,979.7,0,1,"",96
"2014-02-08 05:14:00",7.3,6.7,7.2,0.0,0,979.7,0,0,"",96
"2014-02-08 05:15:00",7.3,6.7,7.2,0.0,0,979.7,0,1,"",96
"2014-02-08 05:16:00",7.3,6.7,7.2,0.0,0,979.8,0,1,"",96
"2014-02-08 05:17:00",7.2,6.6,7.2,0.0,0,979.8,2,8,"",96
"2014-02-08 05:18:00",7.2,6.6,7.2,0.0,0,979.8,1,1,"",96
"2014-02-08 05:19:00",7.2,6.6,7.4,0.0,0,979.8,1,3,"",96
"2014-02-08 05:20:00",7.2,6.6,7.4,0.0,0,979.8,1,1,"",96
"2014-02-08 05:21:00",7.2,6.6,7.4,0.0,0,979.8,0,1,"",96
"2014-02-08 05:22:00",7.2,6.6,7.4,0.0,0,979.8,0,1,"",96
"2014-02-08 05:23:00",7.2,6.6,7.4,0.0,0,979.8,0,1,"",96
"2014-02-08 05:24:00",7.1,6.5,7.4,0.0,0,979.8,1,1,"",96
"2014-02-08 05:25:00",7.1,6.5,7.6,0.0,0,979.8,0,1,"",96
"2014-02-08 05:26:00",7.1,6.5,7.6,0.0,0,979.8,0,3,"",96
"2014-02-08 05:27:00",7.1,6.5,7.6,0.0,0,979.7,1,1,"",96
"2014-02-08 05:28:00",7.1,6.5,7.6,0.0,0,979.7,1,1,"",96
"2014-02-08 05:29:00",7.1,6.5,7.6,0.0,0,979.7,0,0,"",96
"2014-02-08 05:30:00",7.1,6.5,7.6,0.0,0,979.7,1,5,"",96
"2014-02-08 05:31:00",7.0,6.4,7.6,0.0,0,979.8,2,5,"",96
"2014-02-08 05:32:00",7.0,6.4,7.6,0.0,0,979.8,1,1,"",96
"2014-02-08 05:33:00",7.0,6.4,7.8,0.0,0,979.8,0,1,"",96
"2014-02-08 05:34:00",7.0,6.4,7.8,0.0,0,979.8,0,1,"",96
"2014-02-08 05:35:00",6.9,6.4,7.8,0.0,0,979.8,0,1,"",97
"2014-02-08 05:36:00",6.9,6.4,7.8,0.0,0,979.8,1,1,"",97
"2014-02-08 05:37:00",6.9,6.4,7.8,0.0,0,979.8,2,5,"",97
"2014-02-08 05:38:00",6.9,6.3,7.8,0.0,0,979.8,3,5,"",96
"2014-02-08 05:39:00",6.9,6.3,8.0,0.0,0,979.8,3,5,"",96
"2014-02-08 05:40:00",6.9,6.3,8.0,0.0,0,979.8,2,1,"",96
"2014-02-08 05:41:00",6.9,6.3,8.0,0.0,0,979.7,0,1,"",96
"2014-02-08 05:42:00",6.9,6.3,8.0,0.0,0,979.7,1,7,"",96
"2014-02-08 05:43:00",6.9,6.4,8.0,0.0,0,979.7,2,3,"",97
"2014-02-08 05:44:00",6.9,6.4,8.0,0.0,0,979.7,2,5,"",97
"2014-02-08 05:45:00",6.9,6.4,8.0,0.0,0,979.7,2,3,"",97
"2014-02-08 05:46:00",6.9,6.4,8.0,0.0,0,979.7,1,3,"",97
"2014-02-08 05:47:00",6.9,6.4,8.0,0.0,0,979.6,1,1,"",97
"2014-02-08 05:48:00",6.9,6.4,8.2,0.0,0,979.6,2,5,"",97
"2014-02-08 05:49:00",6.9,6.4,8.2,0.0,0,979.6,3,5,"",97
"2014-02-08 05:50:00",6.9,6.4,8.2,0.0,0,979.6,2,5,"",97
"2014-02-08 05:51:00",6.9,6.4,8.2,0.0,0,979.6,2,1,"",97
"2014-02-08 05:52:00",6.8,6.4,8.2,0.0,0,979.5,1,1,"",97
"2014-02-08 05:53:00",6.8,6.4,8.2,0.0,0,979.5,1,3,"",97
"2014-02-08 05:54:00",6.9,6.4,8.4,0.0,0,979.4,1,3,"",97
"2014-02-08 05:55:00",6.8,6.4,8.4,0.0,0,979.4,3,7,"",97
"2014-02-08 05:56:00",6.8,6.4,8.4,0.0,0,979.4,2,5,"",97
"2014-02-08 05:57:00",6.9,6.4,8.4,0.0,0,979.4,1,3,"",97
"2014-02-08 05:58:00",6.9,6.4,8.4,0.0,0,979.4,0,1,"",97
"2014-02-08 05:59:00",6.9,6.4,8.4,0.0,0,979.4,1,3,"",97
"2014-02-08 06:00:00",6.9,6.4,8.4,0.0,0,979.3,1,3,"",97
"2014-02-08 06:01:00",6.8,6.4,8.4,0.0,0,979.3,1,3,"",97
"2014-02-08 06:02:00",6.8,6.4,8.4,0.0,0,979.2,1,3,"",97
"2014-02-08 06:03:00",6.8,6.4,8.4,0.0,0,979.3,1,0,"",97
"2014-02-08 06:04:00",6.8,6.4,8.6,0.0,0,979.3,0,1,"",97
"2014-02-08 06:05:00",6.8,6.4,8.6,0.0,0,979.4,1,5,"",97
"2014-02-08 06:06:00",6.8,6.4,8.6,0.0,0,979.4,2,3,"",97
"2014-02-08 06:07:00",6.8,6.4,8.6,0.0,0,979.4,2,3,"",97
"2014-02-08 06:08:00",6.8,6.4,8.6,0.0,0,979.4,2,7,"",97
"2014-02-08 06:09:00",6.8,6.4,8.6,0.0,0,979.4,2,3,"",97
"2014-02-08 06:10:00",6.8,6.4,8.6,0.0,0,979.4,1,3,"",97
"2014-02-08 06:11:00",6.8,6.4,8.6,0.0,0,979.4,1,1,"",97
"2014-02-08 06:12:00",6.8,6.4,8.8,0.0,0,979.4,1,5,"",97
"2014-02-08 06:13:00",6.8,6.4,8.8,0.0,0,979.4,2,5,"",97
"2014-02-08 06:14:00",6.8,6.2,8.8,0.0,0,979.5,2,5,"",96
"2014-02-08 06:15:00",6.8,6.2,8.8,0.0,0,979.5,2,5,"",96
"2014-02-08 06:16:00",6.8,6.2,8.8,0.0,0,979.5,1,3,"",96
"2014-02-08 06:17:00",6.8,6.2,8.8,0.0,0,979.5,1,3,"",96
"2014-02-08 06:18:00",6.8,6.2,8.8,0.0,0,979.4,1,3,"",96
"2014-02-08 06:19:00",6.8,6.2,8.8,0.0,0,979.5,1,1,"",96
"2014-02-08 06:20:00",6.8,6.2,8.8,0.0,0,979.5,0,1,"",96
"2014-02-08 06:21:00",6.8,6.2,8.8,0.0,0,979.5,1,3,"",96
"2014-02-08 06:22:00",6.8,6.2,8.8,0.0,0,979.5,2,12,"",96
"2014-02-08 06:23:00",6.8,6.2,8.8,0.0,0,979.5,3,3,"",96
"2014-02-08 06:24:00",6.8,6.2,8.8,0.0,0,979.5,2,5,"",96
"2014-02-08 06:25:00",6.8,6.2,9.0,0.0,0,979.5,1,1,"",96
"2014-02-08 06:26:00",6.8,6.2,9.0,0.0,0,979.6,2,8,"",96
"2014-02-08 06:27:00",6.8,6.2,9.0,0.0,0,979.5,3,5,"",96
"2014-02-08 06:28:00",6.8,6.2,9.0,0.0,0,979.6,3,8,"",96
"2014-02-08 06:29:00",6.8,6.2,9.0,0.0,0,979.5,3,5,"",96
"2014-02-08 06:30:00",6.8,6.3,9.0,0.0,0,979.5,1,3,"",97
"2014-02-08 06:31:00",6.8,6.3,9.0,0.0,0,979.5,3,15,"",97
"2014-02-08 06:32:00",6.9,6.3,9.0,0.0,0,979.5,7,15,"",96
"2014-02-08 06:33:00",6.9,6.3,9.2,0.0,0,979.5,2,7,"",96
"2014-02-08 06:34:00",6.9,6.1,9.2,0.0,0,979.4,3,7,"",95
"2014-02-08 06:35:00",6.9,6.1,9.2,0.0,0,979.4,2,7,"",95
"2014-02-08 06:36:00",6.9,6.1,9.2,0.0,0,979.4,2,10,"",95
"2014-02-08 06:37:00",6.9,6.2,9.2,0.0,0,979.5,3,10,"",95
"2014-02-08 06:38:00",6.9,6.2,9.2,0.0,0,979.4,2,5,"",95
"2014-02-08 06:39:00",6.9,6.2,9.2,0.0,0,979.3,2,5,"",95
"2014-02-08 06:40:00",6.9,6.2,9.2,0.0,0,979.3,2,1,"",95
"2014-02-08 06:41:00",6.9,6.2,9.2,0.0,0,979.4,2,16,"",95
"2014-02-08 06:42:00",6.9,6.0,9.2,0.0,0,979.3,3,1,"",94
"2014-02-08 06:43:00",6.9,6.0,9.2,0.0,0,979.4,1,3,"",94
"2014-02-08 06:44:00",6.9,6.0,9.2,0.0,0,979.4,2,5,"",94
"2014-02-08 06:45:00",6.9,6.0,9.2,0.0,0,979.4,2,5,"",94
"2014-02-08 06:46:00",6.9,6.0,9.4,0.0,0,979.4,2,7,"",94
"2014-02-08 06:47:00",6.9,6.0,9.4,0.0,0,979.4,3,7,"",94
"2014-02-08 06:48:00",6.9,5.8,9.4,0.0,0,979.4,2,3,"",93
"2014-02-08 06:49:00",6.9,5.8,9.4,0.0,0,979.4,1,3,"",93
"2014-02-08 06:50:00",6.8,5.8,9.4,0.0,0,979.3,2,3,"",93
"2014-02-08 06:51:00",6.8,5.8,9.4,0.0,0,979.3,2,5,"",93
"2014-02-08 06:52:00",6.8,5.8,9.4,0.0,0,979.3,1,1,"",93
"2014-02-08 06:53:00",6.8,5.8,9.6,0.0,0,979.3,0,1,"",93
"2014-02-08 06:54:00",6.8,5.8,9.6,0.0,0,979.3,0,1,"",93
"2014-02-08 06:55:00",6.8,5.8,9.6,0.0,0,979.2,0,3,"",93
"2014-02-08 06:56:00",6.8,5.8,9.6,0.0,0,979.2,2,7,"",93
"2014-02-08 06:57:00",6.8,5.7,9.6,0.0,0,979.2,3,3,"",93
"2014-02-08 06:58:00",6.8,5.6,9.6,0.0,0,979.1,1,1,"",92
"2014-02-08 06:59:00",6.8,5.6,9.6,0.0,0,979.1,1,3,"",92
"2014-02-08 07:00:00",6.8,5.6,9.6,0.0,0,979.1,1,3,"",92
"2014-02-08 07:01:00",6.7,5.5,9.6,0.0,0,979.1,2,3,"",92
"2014-02-08 07:02:00",6.7,5.5,9.6,0.0,0,979.1,1,5,"",92
"2014-02-08 07:03:00",6.7,5.5,9.6,0.0,0,979.0,2,3,"",92